[[{"header":{"parameterUnit":"m.s-1","parameterCategory":1,"la1":30.2991,"la2":30.254,"lo1":-89.0895,"lo2":-89.0444,"dy":0.0017,"dx":0.0017,"nx":28,"ny":28,"refTime":"2024-11-26T03:00:00:Z","depth":0,"parameterNumber":2,"parameterNumberName":"U-component_of_WINDS"},"data":[0,0,0,0,0,0,0,0,0,0,0,0,0,0,0,0,0,0,0,0,0,0,0,0,0,0,0,0,0,0,0,0,0,0,0,0,0,0,0,0,0,0,0,0,0,0,0,0,0,0,0,0,0,0,0,0,0,0,-0.2417,-0.2418,0,-0.2472,-0.2472,-0.2473,-0.2514,-0.2515,-0.2515,-0.2515,-0.2573,-0.2575,-0.2576,0,0,0,0,0,0,0,0,0,0,0,0,0,-0.235,-0.2351,-0.2417,-0.2418,-0.2418,-0.2472,-0.2472,-0.2473,-0.2514,-0.2515,-0.2515,-0.2516,-0.2573,-0.2574,-0.2576,0,0,0,0,0,0,0,0,0,0,0,0,0,-0.2389,-0.2351,-0.2417,-0.2445,-0.2448,-0.2472,-0.2473,-0.2473,-0.2514,-0.2515,-0.2515,-0.2516,-0.2573,-0.2574,-0.2576,-0.2576,0,0,-0.2582,-0.2582,0,0,0,0,0,0,0,0,-0.2387,-0.2392,-0.244,-0.2443,-0.2447,-0.2487,-0.247,-0.2508,-0.2514,-0.2489,-0.2515,-0.2516,-0.2544,-0.2548,-0.2558,-0.2579,-0.2581,-0.2582,-0.2583,-0.2584,-0.2584,0,0,0,0,0,0,0,-0.2384,-0.239,-0.2439,-0.2441,-0.2445,-0.2456,-0.2462,-0.2478,-0.2513,-0.2491,-0.2495,-0.25,-0.2546,-0.2556,-0.2559,-0.2582,-0.2582,-0.2583,-0.2584,-0.2585,-0.2608,-0.2608,0,0,0,0,0,0,-0.2377,-0.2387,-0.2437,-0.244,-0.2418,-0.2457,-0.2464,-0.2473,-0.2513,-0.2519,-0.25,-0.2502,-0.2552,-0.2557,-0.2561,-0.2565,-0.2584,-0.2585,-0.2586,-0.2609,-0.2608,-0.2607,0,0,0,0,0,0,-0.2375,-0.2381,-0.2435,-0.2415,-0.2422,-0.2457,-0.2468,-0.2474,-0.2484,-0.2519,-0.2526,-0.2503,-0.2553,-0.2559,-0.2572,-0.2568,-0.2586,-0.2588,-0.2609,-0.2608,-0.2608,-0.2572,0,0,0,0,0,0,-0.2373,-0.238,-0.238,-0.2414,-0.2423,-0.2444,-0.2468,-0.2475,-0.2487,-0.249,-0.2524,-0.253,-0.2554,-0.2569,-0.2574,-0.257,-0.2589,-0.261,-0.2609,-0.2608,-0.2573,-0.257,-0.2567,0,0,0,0,0,-0.2371,-0.2368,-0.238,-0.2385,-0.2423,-0.2443,-0.2449,-0.2475,-0.2486,-0.2487,-0.251,-0.2529,-0.2567,-0.2571,-0.2576,-0.2573,-0.261,-0.2609,-0.2608,-0.2575,-0.257,-0.2567,0,0,0,0,0,0,-0.2332,-0.2373,-0.2386,-0.2394,-0.2415,-0.245,-0.2452,-0.247,-0.2488,-0.2491,-0.2524,-0.2531,-0.2542,-0.2559,-0.2562,-0.2576,-0.2591,-0.2591,-0.2564,-0.256,-0.2557,-0.2553,-0.2591,0,0,0,0,0,-0.2324,-0.2336,-0.2371,-0.2375,-0.2385,-0.2416,-0.2426,-0.2445,-0.2468,-0.2477,-0.2501,-0.2524,-0.2541,-0.2552,-0.2569,-0.2576,-0.2585,-0.2577,-0.2573,-0.257,-0.257,-0.2576,-0.2574,-0.2604,-0.2604,-0.2604,0,0,-0.2308,-0.2332,-0.2338,-0.2368,-0.2386,-0.2399,-0.2423,-0.2436,-0.2446,-0.2479,-0.2494,-0.2512,-0.254,-0.255,-0.2556,-0.2564,-0.2564,-0.2569,-0.2566,-0.2568,-0.2575,-0.2572,-0.257,-0.2603,-0.2603,-0.2603,0,0,-0.2286,-0.2305,-0.2311,-0.2329,-0.2356,-0.2377,-0.2379,-0.2412,-0.2425,-0.244,-0.2466,-0.2479,-0.2507,-0.2526,-0.2539,-0.2526,-0.2545,-0.2531,-0.2513,-0.2519,-0.2516,-0.2514,-0.251,-0.2508,-0.253,-0.253,-0.253,0,-0.2263,-0.2283,-0.2311,-0.2322,-0.2335,-0.2366,-0.2372,-0.2389,-0.2421,-0.2429,-0.2439,-0.2476,-0.2497,-0.2512,-0.2509,-0.2518,-0.2522,-0.2527,-0.2514,-0.2513,-0.2511,-0.2508,-0.2506,-0.2528,-0.2528,-0.2529,-0.2529,0,-0.2254,-0.2267,-0.2268,-0.2298,-0.2311,-0.232,-0.235,-0.2361,-0.2379,-0.2399,-0.2415,-0.244,-0.2465,-0.247,-0.2487,-0.2489,-0.2493,-0.2508,-0.2524,-0.2506,-0.2503,-0.2502,-0.2525,-0.2526,-0.2527,-0.2527,0,0,-0.2208,-0.2254,-0.2254,-0.2269,-0.2302,-0.2313,-0.2324,-0.2347,-0.2355,-0.2377,-0.2387,-0.2411,-0.2425,-0.244,-0.2461,-0.2466,-0.2455,-0.248,-0.2481,-0.2475,-0.2459,-0.2448,-0.2446,-0.2467,-0.2467,-0.2467,-0.2457,0,-0.2192,-0.2212,-0.2238,-0.2249,-0.2263,-0.2293,-0.2302,-0.2324,-0.2344,-0.2359,-0.2381,-0.2398,-0.2415,-0.2424,-0.243,-0.2454,-0.2452,-0.2456,-0.2479,-0.2479,-0.2471,-0.2444,-0.2432,-0.2421,-0.2456,-0.2456,-0.2455,0,-0.2175,-0.2195,-0.2207,-0.224,-0.2247,-0.2255,-0.2279,-0.2292,-0.2318,-0.2333,-0.235,-0.2372,-0.2386,-0.24,-0.2421,-0.2423,-0.2434,-0.2447,-0.2448,-0.2451,-0.2466,-0.2447,-0.2418,-0.2416,-0.2454,-0.2454,-0.2454,0,-0.2142,-0.2171,-0.2183,-0.2194,-0.2233,-0.2238,-0.2254,-0.2281,-0.2293,-0.2315,-0.2324,-0.2346,-0.2359,-0.2377,-0.2405,-0.2412,-0.2423,-0.2439,-0.2436,-0.2435,-0.2437,-0.2436,-0.2409,-0.2443,-0.2443,-0.2443,-0.2443,0,-0.2121,-0.2128,-0.2168,-0.2175,-0.2184,-0.2215,-0.2223,-0.2243,-0.2266,-0.2279,-0.2306,-0.2317,-0.2354,-0.237,-0.2392,-0.2406,-0.2412,-0.2424,-0.243,-0.2422,-0.242,-0.243,-0.2432,-0.2442,-0.2443,-0.2443,-0.2443,0,-0.2085,-0.2112,-0.2127,-0.2162,-0.2172,-0.2177,-0.2208,-0.2216,-0.2238,-0.2253,-0.2259,-0.2293,-0.2313,-0.2343,-0.2373,-0.2388,-0.2399,-0.2408,-0.239,-0.2393,-0.2389,-0.2389,-0.2367,-0.2366,-0.2399,-0.2399,-0.2399,0,-0.207,-0.2076,-0.2112,-0.2122,-0.2137,-0.2153,-0.2166,-0.2197,-0.2209,-0.224,-0.2245,-0.2268,-0.2287,-0.2318,-0.2347,-0.237,-0.238,-0.2371,-0.2384,-0.2376,-0.2381,-0.238,-0.2382,-0.2368,-0.2367,-0.2367,-0.2367,0,-0.2041,-0.2054,-0.2071,-0.2094,-0.2108,-0.2128,-0.2148,-0.2155,-0.2191,-0.2204,-0.2225,-0.224,-0.227,-0.2292,-0.2319,-0.2338,-0.2358,-0.2362,-0.2363,-0.2355,-0.2344,-0.2351,-0.2382,-0.2363,-0.2363,-0.2363,-0.2364,-0.2364,-0.2016,-0.2022,-0.2049,-0.2068,-0.2086,-0.2105,-0.2116,-0.2139,-0.2156,-0.2183,-0.22,-0.222,-0.2248,-0.2286,-0.2303,-0.232,-0.2329,-0.233,-0.233,-0.233,-0.2327,-0.2341,-0.2325,-0.2326,-0.2326,-0.2326,-0.2326,0,-0.1988,-0.2007,-0.2024,-0.2052,-0.2067,-0.2084,-0.2109,-0.212,-0.2137,-0.2161,-0.2179,-0.2204,-0.2226,-0.2256,-0.2281,-0.2289,-0.2299,-0.2294,-0.2294,-0.2298,-0.2318,-0.2315,-0.2286,-0.2286,-0.2286,-0.2286,-0.2286,-0.2286,-0.1976,-0.1989,-0.2006,-0.2029,-0.2048,-0.2067,-0.208,-0.2098,-0.2117,-0.2143,-0.2161,-0.218,-0.2207,-0.2234,-0.2255,-0.2264,-0.2272,-0.2264,-0.2276,-0.2293,-0.2297,-0.23,-0.2298,-0.2266,-0.2266,-0.2255,-0.2255,-0.2255]},{"header":{"parameterUnit":"m.s-1","parameterCategory":1,"la1":30.2991,"la2":30.254,"lo1":-89.0895,"lo2":-89.0444,"dy":0.0017,"dx":0.0017,"nx":28,"ny":28,"refTime":"2024-11-26T03:00:00:Z","depth":0,"parameterNumber":3,"parameterNumberName":"V-component_of_WINDS"},"data":[0,0,0,0,0,0,0,0,0,0,0,0,0,0,0,0,0,0,0,0,0,0,0,0,0,0,0,0,0,0,0,0,0,0,0,0,0,0,0,0,0,0,0,0,0,0,0,0,0,0,0,0,0,0,0,0,0,0,2.7353,2.7353,0,2.7342,2.7342,2.7342,2.7281,2.728,2.7279,2.7277,2.7266,2.7267,2.7268,0,0,0,0,0,0,0,0,0,0,0,0,0,2.7323,2.7324,2.7353,2.7353,2.7353,2.7342,2.7342,2.7342,2.7282,2.728,2.7278,2.7277,2.7266,2.7267,2.7268,0,0,0,0,0,0,0,0,0,0,0,0,0,2.7326,2.7324,2.7353,2.7321,2.7319,2.7342,2.7342,2.7341,2.7282,2.728,2.7278,2.7276,2.7266,2.7267,2.7269,2.7321,0,0,2.7273,2.7274,0,0,0,0,0,0,0,0,2.7326,2.7327,2.7326,2.7324,2.732,2.7311,2.7327,2.7335,2.7283,2.7296,2.7277,2.7275,2.7283,2.7283,2.7285,2.7321,2.732,2.7274,2.7274,2.7275,2.7276,0,0,0,0,0,0,0,2.7326,2.7328,2.7348,2.7326,2.7323,2.7308,2.7306,2.7328,2.7302,2.7295,2.729,2.729,2.7281,2.7284,2.7285,2.732,2.7273,2.7275,2.7276,2.7276,2.7398,2.74,0,0,0,0,0,0,2.733,2.7328,2.7349,2.7348,2.7318,2.731,2.7308,2.7316,2.7301,2.7297,2.7292,2.7287,2.7283,2.7283,2.7284,2.7344,2.7275,2.7277,2.7278,2.7396,2.7399,2.7401,0,0,0,0,0,0,2.733,2.7333,2.7349,2.7337,2.7338,2.7313,2.7322,2.7317,2.732,2.7299,2.7294,2.73,2.7281,2.7282,2.7312,2.7343,2.7277,2.7279,2.7393,2.7397,2.74,2.7466,0,0,0,0,0,0,2.7329,2.7333,2.7352,2.7338,2.7339,2.7378,2.7324,2.7318,2.7323,2.7317,2.7305,2.7301,2.7279,2.731,2.7314,2.7344,2.728,2.739,2.7395,2.7399,2.7461,2.7471,2.748,0,0,0,0,0,2.7328,2.7372,2.7354,2.7357,2.7363,2.738,2.738,2.7354,2.7326,2.7345,2.7332,2.7302,2.734,2.7314,2.7318,2.7349,2.7388,2.7393,2.7398,2.7457,2.7469,2.748,0,0,0,0,0,0,2.7391,2.7369,2.7349,2.7389,2.7387,2.7369,2.7393,2.7368,2.7374,2.7368,2.7335,2.7333,2.7368,2.7362,2.7334,2.7399,2.7359,2.7365,2.7402,2.7414,2.7423,2.7423,2.7281,0,0,0,0,0,2.7409,2.7425,2.7405,2.7442,2.7442,2.7418,2.7425,2.7404,2.7401,2.7399,2.7388,2.7386,2.7397,2.7405,2.7414,2.746,2.7456,2.7483,2.7493,2.7501,2.7506,2.7529,2.7541,2.7418,2.7418,2.7418,0,0,2.7447,2.7437,2.7449,2.7454,2.745,2.7467,2.7418,2.7437,2.7449,2.7402,2.743,2.7422,2.7417,2.7456,2.7472,2.7451,2.754,2.7507,2.7514,2.7515,2.7536,2.7548,2.7558,2.7421,2.7421,2.742,0,0,2.7525,2.752,2.7549,2.7546,2.7541,2.7525,2.7532,2.7519,2.7511,2.7539,2.7504,2.7518,2.7538,2.7536,2.7538,2.7616,2.7588,2.762,2.767,2.7693,2.7702,2.7711,2.7738,2.7748,2.7626,2.7626,2.7626,0,2.7573,2.7597,2.7568,2.759,2.7593,2.7552,2.7582,2.758,2.7578,2.7582,2.7559,2.7583,2.7577,2.7614,2.7633,2.7636,2.7643,2.762,2.7703,2.7711,2.7719,2.7744,2.7755,2.7629,2.7629,2.7629,2.7628,0,2.7656,2.7673,2.7698,2.7696,2.7703,2.7729,2.7704,2.7714,2.7694,2.768,2.7709,2.77,2.7707,2.7715,2.7695,2.7749,2.7736,2.7709,2.7668,2.7735,2.7758,2.7768,2.7635,2.7634,2.7632,2.7632,0,0,2.7771,2.7754,2.7764,2.7763,2.7754,2.7766,2.7791,2.7797,2.7806,2.7806,2.7826,2.7844,2.7819,2.7821,2.7801,2.7821,2.7883,2.7791,2.7791,2.7808,2.7941,2.7961,2.7973,2.7865,2.7867,2.7868,2.7941,0,2.7845,2.7885,2.786,2.7904,2.792,2.7881,2.7902,2.7899,2.7887,2.7899,2.7886,2.7899,2.7865,2.7866,2.7884,2.7871,2.7909,2.7866,2.7882,2.7883,2.7884,2.7985,2.8006,2.8075,2.795,2.7952,2.7953,0,2.7936,2.794,2.7985,2.7973,2.7979,2.7998,2.8002,2.8014,2.801,2.8,2.8002,2.7977,2.8,2.7961,2.7992,2.7964,2.7969,2.7964,2.7966,2.7965,2.7921,2.7986,2.8097,2.8107,2.7967,2.7966,2.7965,0,2.8015,2.8032,2.8061,2.8061,2.8048,2.8063,2.8058,2.8052,2.8057,2.8061,2.8064,2.8071,2.8074,2.808,2.8058,2.8031,2.8092,2.805,2.8084,2.8085,2.8097,2.8097,2.8209,2.8103,2.8103,2.8103,2.8103,0,2.8099,2.8128,2.8096,2.8114,2.8145,2.8117,2.8149,2.814,2.8135,2.8151,2.8118,2.8134,2.8104,2.8116,2.8099,2.8127,2.813,2.8122,2.8117,2.8124,2.8125,2.8127,2.8121,2.8105,2.8105,2.8104,2.8104,0,2.8191,2.8171,2.82,2.8186,2.8183,2.8207,2.8194,2.821,2.8197,2.8217,2.822,2.8199,2.8212,2.819,2.8201,2.8189,2.8229,2.8217,2.823,2.8226,2.826,2.8257,2.8377,2.8391,2.8277,2.8278,2.8279,0,2.8246,2.8267,2.8255,2.8263,2.826,2.8274,2.8279,2.8253,2.826,2.8257,2.8273,2.8284,2.829,2.8313,2.8298,2.8306,2.8294,2.8335,2.8295,2.8301,2.8293,2.8292,2.8294,2.8343,2.8345,2.8346,2.8347,0,2.8344,2.8333,2.8342,2.8348,2.8355,2.8359,2.836,2.8368,2.834,2.835,2.8363,2.8368,2.8379,2.8389,2.8394,2.8389,2.8363,2.836,2.8368,2.8375,2.8381,2.8378,2.8252,2.8357,2.8356,2.8355,2.8354,2.8354,2.8419,2.8436,2.843,2.8441,2.8439,2.8441,2.8455,2.8443,2.8454,2.846,2.8444,2.8461,2.8456,2.846,2.8458,2.8471,2.8452,2.8464,2.8467,2.847,2.8475,2.838,2.8472,2.8471,2.8471,2.8471,2.847,0,2.8515,2.8509,2.852,2.8522,2.8531,2.8506,2.8506,2.8515,2.853,2.8528,2.8536,2.855,2.8561,2.8548,2.8555,2.8568,2.8557,2.8571,2.8569,2.8569,2.8491,2.8483,2.858,2.858,2.858,2.858,2.858,2.858,2.8566,2.8593,2.8582,2.8608,2.8602,2.8618,2.862,2.8622,2.862,2.8638,2.8646,2.8637,2.8631,2.8638,2.8647,2.8643,2.8647,2.8665,2.8657,2.8585,2.8574,2.8564,2.8556,2.8667,2.8667,2.8733,2.8733,2.8734]}]]